[[{"header":{"parameterUnit":"m.s-1","parameterCategory":1,"la1":30.2991,"la2":30.254,"lo1":-89.0895,"lo2":-89.0444,"dy":0.0017,"dx":0.0017,"nx":28,"ny":28,"refTime":"2024-03-15T09:00:00:Z","depth":0,"parameterNumber":2,"parameterNumberName":"U-component_of_WINDS"},"data":[0,0,0,0,0,0,0,0,0,0,0,0,0,0,0,0,0,0,0,0,0,0,0,0,0,0,0,0,0,0,0,0,0,0,0,0,0,0,0,0,0,0,0,0,0,0,0,0,0,0,0,0,0,0,0,0,0,0,-2.7378,-2.7378,0,-2.7432,-2.7433,-2.7434,-2.7423,-2.7422,-2.7421,-2.742,-2.7475,-2.7478,-2.748,0,0,0,0,0,0,0,0,0,0,0,0,0,-2.7264,-2.7266,-2.7378,-2.7378,-2.7379,-2.7432,-2.7433,-2.7434,-2.7423,-2.7422,-2.742,-2.7419,-2.7475,-2.7478,-2.748,0,0,0,0,0,0,0,0,0,0,0,0,0,-2.7315,-2.7267,-2.7377,-2.738,-2.7381,-2.7432,-2.7433,-2.7434,-2.7423,-2.7422,-2.742,-2.7419,-2.7474,-2.7477,-2.7481,-2.7533,0,0,-2.7492,-2.7493,0,0,0,0,0,0,0,0,-2.7313,-2.732,-2.7379,-2.738,-2.7381,-2.7419,-2.7413,-2.7467,-2.7423,-2.7407,-2.742,-2.7418,-2.7458,-2.7463,-2.7476,-2.7536,-2.7538,-2.7492,-2.7494,-2.7496,-2.7497,0,0,0,0,0,0,0,-2.7309,-2.7317,-2.7399,-2.738,-2.7381,-2.7378,-2.7384,-2.7424,-2.744,-2.7408,-2.7408,-2.7414,-2.7458,-2.7473,-2.7478,-2.7539,-2.7492,-2.7495,-2.7498,-2.7499,-2.7645,-2.7646,0,0,0,0,0,0,-2.7305,-2.7314,-2.7397,-2.7401,-2.7342,-2.7382,-2.7388,-2.7408,-2.744,-2.7443,-2.7415,-2.7414,-2.7467,-2.7473,-2.7479,-2.7543,-2.7496,-2.7499,-2.7501,-2.7643,-2.7645,-2.7647,0,0,0,0,0,0,-2.7302,-2.7312,-2.7395,-2.7357,-2.7368,-2.7385,-2.7408,-2.741,-2.7425,-2.7445,-2.7448,-2.7427,-2.7466,-2.7474,-2.752,-2.7544,-2.7501,-2.7504,-2.7641,-2.7644,-2.7646,-2.767,0,0,0,0,0,0,-2.7299,-2.7311,-2.7331,-2.7358,-2.737,-2.7435,-2.741,-2.7412,-2.7431,-2.7429,-2.7457,-2.746,-2.7466,-2.7515,-2.7524,-2.7549,-2.7507,-2.7639,-2.7642,-2.7645,-2.7667,-2.7673,-2.7678,0,0,0,0,0,-2.7295,-2.7335,-2.7332,-2.7342,-2.7395,-2.7436,-2.7443,-2.7449,-2.7433,-2.7453,-2.7467,-2.7459,-2.7541,-2.7519,-2.7529,-2.7556,-2.7637,-2.7641,-2.7645,-2.7664,-2.7671,-2.7678,0,0,0,0,0,0,-2.7311,-2.7339,-2.7336,-2.7386,-2.7409,-2.7434,-2.746,-2.7456,-2.7484,-2.7481,-2.7487,-2.7493,-2.7539,-2.7552,-2.7528,-2.7609,-2.7587,-2.7593,-2.7598,-2.7605,-2.7611,-2.7606,-2.751,0,0,0,0,0,-2.732,-2.7351,-2.7374,-2.7416,-2.7428,-2.7442,-2.746,-2.7463,-2.7487,-2.7496,-2.7513,-2.7536,-2.7567,-2.7587,-2.7616,-2.7669,-2.7675,-2.7692,-2.7698,-2.7702,-2.7707,-2.7736,-2.7744,-2.7659,-2.7659,-2.7659,0,0,-2.734,-2.7359,-2.7378,-2.742,-2.7438,-2.747,-2.745,-2.7485,-2.7508,-2.7501,-2.7545,-2.7558,-2.7585,-2.7634,-2.7657,-2.7647,-2.7732,-2.7707,-2.7711,-2.7713,-2.7741,-2.7749,-2.7756,-2.7662,-2.7662,-2.7661,0,0,-2.7391,-2.7409,-2.7446,-2.7465,-2.7493,-2.7502,-2.7511,-2.7537,-2.7546,-2.759,-2.7585,-2.7614,-2.7667,-2.7686,-2.7703,-2.7764,-2.7758,-2.7773,-2.7801,-2.783,-2.7836,-2.7842,-2.7863,-2.7871,-2.7778,-2.7778,-2.7778,0,-2.7412,-2.746,-2.7466,-2.7501,-2.752,-2.7515,-2.7553,-2.7571,-2.7607,-2.762,-2.7608,-2.7675,-2.7693,-2.7746,-2.7761,-2.7775,-2.7786,-2.7769,-2.7835,-2.7841,-2.7846,-2.7867,-2.7875,-2.778,-2.7779,-2.7779,-2.7779,0,-2.7484,-2.7517,-2.7544,-2.7579,-2.7601,-2.7637,-2.7649,-2.767,-2.7672,-2.7682,-2.7728,-2.7749,-2.7783,-2.7796,-2.7798,-2.7851,-2.7843,-2.7833,-2.7811,-2.7856,-2.7875,-2.7883,-2.7782,-2.7781,-2.7781,-2.7781,0,0,-2.7545,-2.7584,-2.7594,-2.761,-2.764,-2.7666,-2.7703,-2.7736,-2.7754,-2.778,-2.781,-2.7856,-2.7847,-2.7866,-2.787,-2.7895,-2.7941,-2.7882,-2.7882,-2.7891,-2.8001,-2.8007,-2.8016,-2.7938,-2.794,-2.7941,-2.7998,0,-2.7599,-2.7663,-2.7671,-2.7728,-2.7759,-2.7756,-2.7788,-2.781,-2.7821,-2.785,-2.7862,-2.7894,-2.788,-2.7892,-2.7916,-2.793,-2.7963,-2.7926,-2.7967,-2.7968,-2.7959,-2.8026,-2.8034,-2.8086,-2.8006,-2.8007,-2.8008,0,-2.7671,-2.7698,-2.7758,-2.7785,-2.7799,-2.7827,-2.7858,-2.7885,-2.7911,-2.7918,-2.794,-2.794,-2.7978,-2.7956,-2.8009,-2.7984,-2.8001,-2.801,-2.8013,-2.8015,-2.799,-2.8031,-2.8104,-2.8111,-2.802,-2.8019,-2.8018,0,-2.7709,-2.7761,-2.7804,-2.7818,-2.785,-2.787,-2.7885,-2.7909,-2.7929,-2.7957,-2.797,-2.8002,-2.8019,-2.8044,-2.8053,-2.8036,-2.8105,-2.8084,-2.8112,-2.8111,-2.8125,-2.8124,-2.8201,-2.8138,-2.8138,-2.8138,-2.8137,0,-2.7768,-2.7805,-2.7822,-2.7848,-2.7889,-2.7898,-2.7938,-2.7952,-2.7974,-2.8003,-2.8003,-2.803,-2.8042,-2.8071,-2.8079,-2.8121,-2.8129,-2.8135,-2.8137,-2.8135,-2.8134,-2.8145,-2.8141,-2.814,-2.8139,-2.8139,-2.8139,0,-2.7817,-2.783,-2.7876,-2.7904,-2.7911,-2.7941,-2.7964,-2.799,-2.8001,-2.8038,-2.8047,-2.8065,-2.81,-2.8112,-2.8154,-2.816,-2.8209,-2.8207,-2.82,-2.82,-2.8227,-2.8224,-2.8313,-2.8325,-2.8255,-2.8255,-2.8256,0,-2.7853,-2.7881,-2.7912,-2.7932,-2.7947,-2.7978,-2.7999,-2.8008,-2.803,-2.8062,-2.8083,-2.8118,-2.8146,-2.8201,-2.8218,-2.8251,-2.825,-2.8279,-2.8254,-2.8252,-2.8249,-2.8247,-2.825,-2.8283,-2.8284,-2.8284,-2.8285,0,-2.7916,-2.7921,-2.795,-2.7982,-2.8006,-2.8032,-2.8057,-2.8073,-2.8086,-2.811,-2.8146,-2.8167,-2.8211,-2.8245,-2.8278,-2.8293,-2.8291,-2.8292,-2.83,-2.8298,-2.8292,-2.8295,-2.8211,-2.829,-2.8289,-2.8289,-2.8289,-2.8289,-2.7959,-2.7985,-2.801,-2.8043,-2.8063,-2.8086,-2.8111,-2.8126,-2.8156,-2.8192,-2.8196,-2.8234,-2.826,-2.8304,-2.8321,-2.8351,-2.8343,-2.8355,-2.8358,-2.836,-2.8362,-2.8288,-2.8358,-2.8358,-2.8357,-2.8357,-2.8357,0,-2.8022,-2.8038,-2.8068,-2.8103,-2.8129,-2.8125,-2.8153,-2.8175,-2.8208,-2.8232,-2.826,-2.8301,-2.8335,-2.8355,-2.8388,-2.8409,-2.8408,-2.8417,-2.8415,-2.8419,-2.8368,-2.8357,-2.8416,-2.8416,-2.8416,-2.8416,-2.8416,-2.8416,-2.8057,-2.8099,-2.8108,-2.816,-2.8176,-2.8213,-2.8229,-2.8251,-2.8271,-2.8316,-2.8344,-2.8357,-2.838,-2.8415,-2.8446,-2.8451,-2.8463,-2.8472,-2.8477,-2.8428,-2.8422,-2.8416,-2.8406,-2.8475,-2.8475,-2.8525,-2.8525,-2.8526]},{"header":{"parameterUnit":"m.s-1","parameterCategory":1,"la1":30.2991,"la2":30.254,"lo1":-89.0895,"lo2":-89.0444,"dy":0.0017,"dx":0.0017,"nx":28,"ny":28,"refTime":"2024-03-15T09:00:00:Z","depth":0,"parameterNumber":3,"parameterNumberName":"V-component_of_WINDS"},"data":[0,0,0,0,0,0,0,0,0,0,0,0,0,0,0,0,0,0,0,0,0,0,0,0,0,0,0,0,0,0,0,0,0,0,0,0,0,0,0,0,0,0,0,0,0,0,0,0,0,0,0,0,0,0,0,0,0,0,4.3597,4.3597,0,4.3627,4.3628,4.3628,4.362,4.3619,4.3619,4.3618,4.3649,4.365,4.3651,0,0,0,0,0,0,0,0,0,0,0,0,0,4.3532,4.3533,4.3597,4.3597,4.3598,4.3627,4.3628,4.3628,4.362,4.3619,4.3618,4.3618,4.3648,4.365,4.3651,0,0,0,0,0,0,0,0,0,0,0,0,0,4.3561,4.3534,4.3597,4.3597,4.3597,4.3627,4.3628,4.3628,4.362,4.3619,4.3618,4.3617,4.3648,4.365,4.3652,4.3683,0,0,4.3658,4.3659,0,0,0,0,0,0,0,0,4.356,4.3564,4.3597,4.3597,4.3598,4.3619,4.3616,4.3647,4.362,4.3611,4.3618,4.3617,4.3639,4.3642,4.365,4.3684,4.3686,4.3658,4.3659,4.366,4.3661,0,0,0,0,0,0,0,4.3558,4.3562,4.3609,4.3597,4.3598,4.3596,4.3599,4.3622,4.363,4.3612,4.3612,4.3615,4.3639,4.3648,4.365,4.3686,4.3658,4.366,4.3661,4.3662,4.3751,4.3752,0,0,0,0,0,0,4.3555,4.3561,4.3608,4.361,4.3576,4.3598,4.3601,4.3613,4.363,4.3632,4.3616,4.3615,4.3645,4.3648,4.3652,4.3692,4.366,4.3662,4.3663,4.375,4.3751,4.3752,0,0,0,0,0,0,4.3554,4.356,4.3607,4.3585,4.3591,4.36,4.3613,4.3614,4.3622,4.3633,4.3634,4.3623,4.3644,4.3649,4.3676,4.3692,4.3663,4.3665,4.3748,4.375,4.3752,4.377,0,0,0,0,0,0,4.3552,4.3559,4.3571,4.3585,4.3592,4.363,4.3614,4.3615,4.3626,4.3625,4.364,4.3642,4.3644,4.3673,4.3678,4.3695,4.3667,4.3747,4.3749,4.3751,4.3768,4.3772,4.3776,0,0,0,0,0,4.355,4.3574,4.3571,4.3577,4.3607,4.3631,4.3635,4.3637,4.3627,4.364,4.3647,4.3641,4.3689,4.3676,4.3681,4.3699,4.3746,4.3748,4.3751,4.3767,4.3772,4.3776,0,0,0,0,0,0,4.356,4.3576,4.3573,4.3602,4.3616,4.363,4.3645,4.3642,4.3658,4.3656,4.3658,4.3662,4.369,4.3697,4.3681,4.3732,4.3716,4.372,4.3726,4.3731,4.3735,4.3733,4.3668,0,0,0,0,0,4.3566,4.3584,4.3597,4.3622,4.3628,4.3636,4.3646,4.3647,4.3661,4.3666,4.3675,4.3689,4.3707,4.3719,4.3737,4.3769,4.3773,4.3784,4.3788,4.3791,4.3795,4.3815,4.3821,4.376,4.376,4.376,0,0,4.3577,4.3588,4.36,4.3624,4.3634,4.3654,4.364,4.3661,4.3676,4.3669,4.3697,4.3704,4.3719,4.375,4.3764,4.3756,4.3812,4.3794,4.3796,4.3799,4.3818,4.3824,4.3829,4.3762,4.3762,4.3762,0,0,4.361,4.3619,4.3642,4.3653,4.367,4.3675,4.368,4.3695,4.37,4.3727,4.3724,4.3741,4.3772,4.3784,4.3795,4.3834,4.383,4.3839,4.386,4.388,4.3885,4.3889,4.3905,4.3911,4.3843,4.3843,4.3843,0,4.3622,4.3652,4.3654,4.3676,4.3688,4.3684,4.3708,4.3718,4.3739,4.3748,4.3739,4.378,4.379,4.3825,4.3835,4.3842,4.385,4.3838,4.3884,4.3888,4.3892,4.3908,4.3914,4.3844,4.3844,4.3844,4.3844,0,4.3668,4.3689,4.3706,4.3728,4.3741,4.3764,4.377,4.3784,4.3784,4.379,4.3819,4.3831,4.3852,4.386,4.386,4.3896,4.3891,4.3883,4.3868,4.3899,4.3914,4.392,4.3846,4.3845,4.3845,4.3845,0,0,4.3707,4.3731,4.3738,4.3749,4.3767,4.3784,4.3807,4.3829,4.3841,4.3856,4.3877,4.3905,4.3898,4.391,4.3911,4.3928,4.3962,4.3918,4.3919,4.3928,4.4005,4.4013,4.402,4.3959,4.396,4.3961,4.4005,0,4.3743,4.3785,4.3789,4.3827,4.3847,4.3844,4.3865,4.3879,4.3886,4.3905,4.3912,4.3933,4.3921,4.3929,4.3945,4.3954,4.3978,4.3951,4.398,4.3981,4.3978,4.4027,4.4034,4.4075,4.4011,4.4011,4.4012,0,4.379,4.3808,4.3849,4.3867,4.3876,4.3894,4.3916,4.3933,4.395,4.3954,4.3968,4.3967,4.3993,4.3976,4.4012,4.3994,4.4006,4.4012,4.4014,4.4018,4.4,4.4035,4.4088,4.4095,4.4021,4.402,4.402,0,4.3818,4.3852,4.3881,4.389,4.3911,4.3925,4.3935,4.395,4.3964,4.3982,4.3992,4.4012,4.4024,4.4041,4.4047,4.4033,4.4084,4.4066,4.4089,4.4089,4.4101,4.41,4.4159,4.4105,4.4105,4.4105,4.4105,0,4.3858,4.3884,4.3894,4.3912,4.3942,4.3946,4.3975,4.3983,4.3998,4.4019,4.4016,4.4036,4.4041,4.4062,4.4066,4.4097,4.4102,4.4107,4.4108,4.4108,4.4108,4.4117,4.4116,4.4107,4.4106,4.4106,4.4106,0,4.3894,4.3902,4.3934,4.3953,4.3958,4.3979,4.3995,4.4013,4.402,4.4046,4.4053,4.4064,4.4089,4.4096,4.4124,4.4128,4.4165,4.4162,4.416,4.416,4.4183,4.4182,4.4252,4.4262,4.4199,4.42,4.42,0,4.392,4.394,4.3961,4.3976,4.3986,4.4008,4.4023,4.4028,4.4043,4.4065,4.4081,4.4106,4.4126,4.4165,4.4176,4.4199,4.4199,4.4222,4.4202,4.4203,4.4202,4.4202,4.4205,4.4226,4.4226,4.4227,4.4227,0,4.3967,4.3971,4.3992,4.4015,4.4032,4.405,4.4068,4.408,4.4088,4.4105,4.4131,4.4146,4.4177,4.4203,4.4226,4.4236,4.4234,4.4233,4.424,4.4242,4.424,4.4244,4.4172,4.4232,4.4232,4.4231,4.4231,4.4231,4.4001,4.402,4.4038,4.4062,4.4076,4.4093,4.4112,4.4122,4.4144,4.417,4.4172,4.4201,4.4219,4.4251,4.4262,4.4285,4.4279,4.4288,4.4291,4.4293,4.4297,4.4235,4.4289,4.4289,4.4289,4.4289,4.4289,0,4.405,4.4062,4.4084,4.411,4.4129,4.4125,4.4145,4.4162,4.4187,4.4205,4.4225,4.4256,4.4281,4.4295,4.432,4.4336,4.4336,4.4342,4.4342,4.4345,4.43,4.4293,4.4342,4.4342,4.4342,4.4342,4.4342,4.4342,4.4078,4.411,4.4116,4.4156,4.4168,4.4197,4.4209,4.4225,4.4239,4.4274,4.4295,4.4304,4.4321,4.4348,4.4371,4.4374,4.4385,4.4393,4.4396,4.4353,4.4348,4.4343,4.4336,4.4394,4.4394,4.444,4.444,4.444]}]]